Terminal Aerodrome Forecast
Issued by NWS Raleigh/Durham, NC

Home | Current Version | Previous Version | Text Only | Print | Product List | Glossary On
Versions: 1 2 3 4 5 6 7 8 9 10 11 12 13 14 15 16 17 18 19 20 21 22 23 24 25 26 27 28 29 30 31 32 33 34 35 36 37 38 39 40 41 42 43 44 45 46 47 48
000
FTUS42 KRAH 231127
TAFGSO
TAF
KGSO 231127Z 2312/2412 VRB03KT P6SM FEW035 BKN150
     FM231600 07005KT P6SM VCTS SCT040CB BKN250
      TEMPO 2318/2322 3SM -SHRA BKN025
     FM240200 06006KT P6SM SCT020 BKN250
     FM240600 07007KT 5SM BR OVC005=

USA.gov is the U.S. government's official web portal to all federal, state and local government web resources and services.